Location: NJAA Observatory
(40.6819°N, 74.8979°W)
Time: 15:12:40
(UTC-04:00)

Iridium 84 - Visible Passes

Search period start: 27 July 2016 00:00
Search period end: 06 August 2016 00:00
Orbit: 776 x 779 km, 86.4° (Epoch: 27 July)

Date Brightness Start Highest point End Pass type
(mag) Time Alt. Az. Time Alt. Az. Time Alt. Az.
27 Jul 6.0 00:28:31 10° N 00:32:49 54° NE 00:32:49 54° NE visible
27 Jul 7.7 02:11:06 10° NW 02:13:17 14° WNW 02:13:17 14° WNW visible
27 Jul 6.7 23:55:18 10° NNE 23:59:19 33° ENE 23:59:19 33° ENE visible
28 Jul 7.1 01:36:20 10° NNW 01:39:47 25° WNW 01:39:47 25° WNW visible
28 Jul 7.3 23:22:34 10° NNE 23:25:49 19° ENE 23:25:49 19° ENE visible
29 Jul 6.4 01:02:16 10° NNW 01:06:17 42° NW 01:06:17 42° NW visible
29 Jul 7.8 22:51:42 10° ENE 22:52:19 10° ENE 22:52:19 10° ENE visible
30 Jul 6.0 00:28:34 10° N 00:32:47 59° N 00:32:47 59° N visible
30 Jul 6.3 23:55:10 10° N 23:59:18 44° NE 23:59:18 44° NE visible
31 Jul 7.5 01:37:02 10° NW 01:39:46 18° WNW 01:39:46 18° WNW visible
31 Jul 6.9 23:22:07 10° NNE 23:25:49 26° ENE 23:25:49 26° ENE visible
01 Aug 6.9 01:02:38 10° NNW 01:06:17 30° WNW 01:06:17 30° WNW visible
01 Aug 7.5 22:49:42 10° NE 22:52:21 15° ENE 22:52:21 15° ENE visible
02 Aug 6.2 00:28:44 10° N 00:32:49 50° NW 00:32:49 50° NW visible
02 Aug 6.0 23:55:10 10° N 23:59:21 56° NNE 23:59:21 56° NNE visible
03 Aug 7.9 01:38:16 10° NW 01:39:49 12° WNW 01:39:49 12° WNW visible
03 Aug 6.5 23:21:53 10° NNE 23:25:53 36° ENE 23:25:53 36° ENE visible
04 Aug 7.4 01:03:10 10° NNW 01:06:21 22° WNW 01:06:21 22° WNW visible
04 Aug 7.1 22:49:01 10° NNE 22:52:25 21° ENE 22:52:25 21° ENE visible
05 Aug 6.7 00:29:01 10° NNW 00:32:54 37° WNW 00:32:54 37° WNW visible
05 Aug 7.6 22:17:13 10° NE 22:18:58 12° ENE 22:18:58 12° ENE visible
